Regional Weather Roundup
Issued by NWS Northern Indiana

Home | Current Version | Previous Version | Graphics & Text | Print | Product List | Glossary On
Versions: 1 2 3 4 5 6 7 8 9 10 11 12 13 14 15 16 17 18 19 20 21 22 23 24 25 26 27 28 29 30 31 32 33 34 35 36 37 38 39 40 41 42 43 44 45 46 47 48 49 50
000
ASUS43 KIWX 260810
RWRIWX

KIWX WEATHER ROUNDUP
NATIONAL WEATHER SERVICE NORTHERN INDIANA
400 AM EDT WED APR 26 2017

NOTE: "FAIR" INDICATES FEW OR NO CLOUDS BELOW 12,000 FEET WITH NO
SIGNIFICANT WEATHER AND/OR OBSTRUCTIONS TO VISIBILITY.

* THESE STATIONS ARE NOT UNDER NWS QUALITY CONTROL. THEY ALSO MAY NOT
  REPORT WEATHER SUCH AS PRECIPITATION OR FOG.

INZ001>027-260900-
NORTHERN INDIANA

CITY           SKY/WX    TMP DP  RH WIND       PRES   REMARKS
GARY*          CLOUDY    68  53  59 SE8G18    29.53F
VALPARAISO     CLOUDY    66  56  70 SE10      29.56F
MICHIGAN CITY* CLOUDY    64  54  68 SE5       29.56F
LAPORTE*       CLOUDY    63  55  75 SE8       29.57F
KNOX*          MOCLDY    63  36  36 SE10      29.57F
SOUTH BEND     PTCLDY    64  55  72 S12       29.60F
GOSHEN         PTCLDY    63  53  70 SE13      29.61F
MONTICELLO*    CLOUDY    64  55  70 SE8       29.57F
LOGANSPORT*    CLOUDY    59  54  82 SE10      29.61F
ROCHESTER*     CLEAR     64  55  72 SE12      29.61F
WARSAW*        CLEAR     61  54  77 S6        29.62F
ANGOLA*        CLEAR     57  54  88 SE5       29.65F
FORT WAYNE     MOCLDY    59  53  80 SE8       29.66F
HUNTINGTON*    PTCLDY    60  55  85 S6        29.64F
PERU/GRISSOM   CLEAR     60  58  91 S13       29.61F
MARION*        CLEAR     59  54  82 S7        29.65F HAZE

$$
INZ028>050-260900-
CENTRAL INDIANA

CITY           SKY/WX    TMP DP  RH WIND       PRES   REMARKS
LAFAYETTE      PTCLDY    63  56  78 SE9G16    29.57F
KOKOMO*        CLEAR     61  55  81 S13       29.64F
MUNCIE*        PTCLDY    64  55  72 S9        29.66F
INDIANAPOLIS   PTCLDY    61  55  81 SE12      29.62F

$$
MIZ043>046-050>051-056>058-064>065-071>073-077>080-260900-
SOUTHWEST LOWER MICHIGAN

CITY           SKY/WX    TMP DP  RH WIND       PRES   REMARKS
BATTLE CREEK   CLOUDY    61  54  77 SE10      29.64F
BENTON HARBOR  MOCLDY    65  54  67 SE8       29.57F
COLDWATER*     MOCLDY    59  54  83 SE7       29.65F
HILLSDALE*     PTCLDY    55  52  88 SE7       29.67F
HOLLAND        MOCLDY    61  54  77 SE9       29.58F
GRAND RAPIDS   CLOUDY    61  54  77 SE8       29.61F
KALAMAZOO      CLOUDY    60  52  74 SE6       29.62F
STURGIS*       CLOUDY    59  54  83 SE9       29.62F
THREE RIVERS*  FAIR      58  53  83 SE6       29.62F

$$
OHZ001>008-015>018-024>025-260900-
NORTHWEST OHIO

CITY           SKY/WX    TMP DP  RH WIND       PRES   REMARKS
WAUSEON*       MOCLDY    59  55  88 S10       29.68S
DEFIANCE       CLEAR     60  53  77 SE6       29.67F
FINDLAY        CLEAR     60  52  74 SE9       29.69S
TOLEDO EXPRESS CLEAR     57  54  89 S6        29.68S
TOLEDO METCALF CLEAR     57  54  89 SE8       29.70F
LIMA           CLEAR     58  54  86 SE8       29.69F

$$
AND FOR LAKE MICHIGAN COASTAL AND OPEN LAKE BUOY OBSERVATIONS

STATION/POSITION TEMP    WIND        PRES    VSBY  WAVE
                 AIR SEA DIR/SP/G                  HT/PER
                 (F)     (DEG/KT/KT) (MB)    (MI)  (FT/S)
CALUMET HARBOR    67     150/  9/ 14  999.1F
MICHIGAN CITY     66     150/ 10/ 12   N/A
BURNS HARBOR      68     160/ 10/ 19 1000.7F
SOUTH LAKE BUOY   50 41  110/ 12/ 14 1001.0          1
4 MI NW BRIDGMAN  61 50  160/ 14/ 16 1001.0          1/ 2

$$
&&




USA.gov is the U.S. government's official web portal to all federal, state and local government web resources and services.